User: anonymous   Login
Location: Borovka
(49.7741°N, 14.5280°E)
Time: 15:48:37
(UTC+00:00)
Language:

SO-50 - Orbit

View from above orbital plane
View from above orbital plane
View from above satellite
View from above satellite

Ground track
Ground track

The orbit is defined by the following mean orbital elements,

1 27607U          26076.17109669 +.00000000 +00000-0 +18763-3 0 00003
2 27607  64.5530  53.6327 0075344 279.3221  79.9371 14.82815203    02
Epoch (UTC): 17 March 2026 04:06:22
Eccentricity: 0.0075344
inclination: 64.5530°
perigee height: 568 km
apogee height: 673 km
right ascension of ascending node: 53.6327°
argument of perigee: 279.3221°
revolutions per day: 14.82815203
mean anomaly at epoch: 79.9371°

The dashed part of the orbit path shows where the satellite is in the earth's shadow,  

DLR